Regional Weather Roundup
Issued by NWS Charleston, WV

Home | Current Version | Previous Version | Graphics & Text | Print | Product List | Glossary On
Versions: 1 2 3 4 5 6 7 8 9 10 11 12 13 14 15 16 17 18 19 20 21 22 23 24 25 26 27
000
ASUS41 KRLX 191710
RWRRLX
West Virginia Regional Weather Roundup
National Weather Service Charleston WV
100 PM EDT THU APR 19 2018

Note: "fair" indicates few or no clouds below 12,000 feet with no
significant weather and/or obstructions to visibility.

WVZ003-191800-
Northern Panhandle of West Virginia

CITY           SKY/WX    TMP DP  RH WIND       PRES   REMARKS
WHEELING       CLOUDY    36  26  67 NW14      30.06R
$$

WVZ009-191800-
Northwest West Virginia

CITY           SKY/WX    TMP DP  RH WIND       PRES   REMARKS
PARKERSBURG    CLOUDY    42  31  64 NW14G22   30.15R
$$

WVZ006-191800-
Western West Virginia

CITY           SKY/WX    TMP DP  RH WIND       PRES   REMARKS
HUNTINGTON     CLOUDY    42  29  59 W10G18    30.16R
$$

WVZ015-191800-
West Central West Virginia

CITY           SKY/WX    TMP DP  RH WIND       PRES   REMARKS
CHARLESTON     PTSUNNY   43  31  62 W8        30.12R
$$

WVZ022-031-191800-
North Central West Virginia

CITY           SKY/WX    TMP DP  RH WIND       PRES   REMARKS
CLARKSBURG     CLOUDY    42  33  70 W13       30.04R
MORGANTOWN     LGT RAIN  40  36  86 NW8       30.03R
$$

WVZ025-035-042-045-191800-
Southern West Virginia

CITY           SKY/WX    TMP DP  RH WIND       PRES   REMARKS
BECKLEY        CLOUDY    35  28  75 NW15G28   30.05R
LOGAN          CLOUDY    39  28  65 NW12G21   30.12R
BLUEFIELD      CLOUDY    35  25  66 NW17G24   30.05R
LEWISBURG      CLOUDY    37  29  71 W10G18    30.02S
$$

WVZ047-191800-
Northern Mountains of West Virginia

CITY           SKY/WX    TMP DP  RH WIND       PRES   REMARKS
ELKINS         MIX PCPN  37  31  78 NW16G24   29.99R
$$

WVZ052-191800-
Eastern Panhandle of West Virginia

CITY           SKY/WX    TMP DP  RH WIND       PRES   REMARKS
MARTINSBURG    CLOUDY    48  30  49 W23G32    29.87R
PETERSBURG     CLOUDY    44  32  63 NW20G25   29.95R
$$




USA.gov is the U.S. government's official web portal to all federal, state and local government web resources and services.